Wind_Speed
10 4 8 13 10 11 4 5 6 5 5 4 4 2 4 4 3 14 11 28 30 27 32 32 34 29 24 19 17 18 19 18 22 23 25 27 27 23 23 21 21 19 15 20
3 10 13 4 7 6 6 5 5 5 4 4 1 6 7 7 8 15 19 25 32 26 29 32 32 29 26 19 17 16 19 20 23 25 23 25 26 24 20 16 22 27 21 18
8 11 11 12 5 7 5 7 5 6 5 4 1 7 6 3 11 20 16 29 31 31 33 31 35 32 28 22 20 18 19 21 23 25 23 22 21 21 19 17 17 17 26 21
7 10 7 2 7 6 6 14 13 9 4 3 2 5 6 2 9 7 5 14 29 31 37 37 35 31 28 19 18 18 18 21 21 23 25 24 24 22 21 17 14 20 27 24
11 5 5 3 7 5 5 6 4 2 5 5 3 1 6 5 6 11 14 16 27 28 36 35 34 29 27 22 20 18 19 20 22 25 26 25 24 21 18 13 7 12 18 19
12 12 5 8 5 3 5 7 7 5 3 1 2 1 5 5 8 7 13 24 28 28 31 38 35 22 23 26 23 20 22 20 21 25 26 25 24 22 21 16 13 12 13 13
14 8 5 6 1 11 9 5 3 5 4 5 3 3 10 8 9 9 8 14 11 27 37 41 41 35 26 31 30 23 21 21 21 24 27 25 23 23 20 16 16 14 12 10
6 14 6 4 8 11 9 7 6 5 6 3 3 5 7 6 9 8 15 22 11 33 41 43 41 37 34 34 35 24 20 20 20 21 22 23 24 26 23 17 16 14 11 7
5 13 10 4 6 8 3 4 3 4 1 3 3 8 9 4 15 17 10 12 20 41 44 46 50 34 37 40 35 22 21 19 18 17 19 21 22 23 25 22 18 15 11 10
9 9 14 4 2 1 11 8 5 2 4 3 3 7 6 4 0 3 2 4 35 39 44 41 44 39 36 40 29 24 20 14 15 18 16 19 19 21 20 21 20 15 13 14
8 6 12 3 3 8 3 4 5 4 5 5 2 6 8 6 5 4 4 11 27 34 39 44 43 43 38 40 29 27 21 15 15 15 18 18 17 18 20 20 17 15 13 13
11 11 10 8 10 8 7 7 8 5 6 5 4 7 5 8 9 9 11 6 13 34 37 41 44 44 45 37 29 28 22 17 13 13 14 17 18 22 19 17 15 14 11 9
8 5 6 9 6 3 5 7 6 2 5 7 6 6 1 5 8 15 13 10 9 31 33 39 38 43 40 37 34 32 24 17 14 16 18 18 23 23 19 20 17 10 9 9
15 5 11 12 9 3 2 4 7 6 4 5 7 9 1 7 7 15 13 7 22 37 45 43 45 42 43 38 34 32 26 19 16 18 20 23 24 21 19 19 14 13 7 4
6 8 7 8 8 5 6 5 5 7 7 7 9 9 7 9 7 17 14 16 37 39 44 43 44 42 43 38 34 32 26 22 20 22 24 24 23 21 21 19 17 14 10 10
5 2 4 4 3 2 1 3 6 6 3 1 3 7 5 13 11 11 2 26 30 36 43 44 46 46 42 41 38 34 28 25 26 25 25 25 24 23 20 21 17 15 13 13
2 4 3 4 2 4 5 5 3 4 4 6 5 9 8 10 8 10 10 24 25 21 31 44 46 48 47 44 39 35 32 27 28 29 23 25 26 23 19 18 17 14 14 15
4 4 3 3 4 5 8 5 6 5 7 8 2 9 14 15 17 24 19 19 12 14 29 34 48 47 44 42 38 34 34 31 29 29 25 25 27 25 21 19 17 15 15 13
2 4 3 3 4 6 7 7 3 4 11 6 12 15 11 22 23 10 17 5 10 17 18 33 48 43 43 43 39 36 36 34 31 27 26 26 27 27 23 21 19 18 17 15
6 6 5 3 2 5 9 8 13 4 2 5 11 16 8 8 5 5 27 27 34 23 16 30 45 45 44 44 40 37 38 36 34 28 26 27 27 26 24 23 21 18 16 14
4 3 4 3 2 6 5 7 6 6 6 9 0 13 21 5 8 19 34 32 28 24 12 20 47 47 44 41 40 39 37 36 32 29 28 26 24 23 21 19 20 19 17 17
1 1 3 2 4 4 1 5 3 7 2 27 25 20 21 15 17 22 31 44 35 23 13 26 43 43 42 39 38 38 38 33 29 28 31 28 25 24 22 21 22 22 20 19
2 4 3 7 5 9 16 6 20 23 26 26 33 23 19 19 18 14 23 31 42 26 20 34 40 39 39 38 37 36 35 32 31 29 30 27 27 26 24 24 24 24 23 22
7 9 3 4 7 11 29 13 17 27 30 27 26 21 17 15 14 26 30 27 31 27 32 36 39 38 40 40 39 34 31 31 31 31 32 32 31 29 27 26 26 26 25 25
5 7 6 3 8 17 28 29 13 20 27 28 25 23 22 18 13 13 15 19 21 23 20 22 32 37 39 41 43 40 37 33 33 32 32 32 32 31 29 28 26 27 26 24
1 1 2 1 8 5 10 22 18 14 17 16 21 21 19 17 17 12 10 8 8 9 11 18 24 27 28 36 41 44 39 39 36 35 35 33 32 33 32 30 29 28 27 24
Wind_Direction
230 145 220 210 183 211 179 164 198 239 212 106 207 278 329 35 42 107 209 174 167 166 186 188 191 198 206 206 212 214 214 218 213 219 221 216 213 216 218 226 217 216 217 226
349 227 227 263 223 176 198 197 229 299 219 109 261 256 233 225 180 168 188 195 184 189 180 188 196 201 203 212 216 217 217 218 215 220 223 218 220 229 235 223 223 226 227 227
206 237 231 188 150 150 188 183 197 198 102 77 48 281 255 172 200 191 183 201 181 187 178 186 198 199 202 212 220 216 218 217 216 220 218 217 208 219 216 215 216 213 216 220
233 247 168 164 212 146 197 201 221 175 116 216 167 269 275 161 260 253 208 202 189 187 192 197 197 200 207 219 225 218 218 217 222 219 213 210 213 215 224 229 245 240 218 224
242 154 160 133 218 138 239 344 190 86 161 112 228 124 278 59 288 251 247 235 215 192 196 183 197 205 210 219 228 224 218 214 216 216 213 215 218 225 227 219 226 194 200 215
245 223 167 203 184 113 344 81 9 55 59 348 325 168 275 173 210 235 241 224 210 207 204 189 197 206 218 228 228 222 214 211 211 215 214 214 216 216 216 211 201 202 214 222
273 262 224 169 114 37 36 45 352 358 1 225 325 308 246 207 196 190 189 198 198 205 207 203 208 210 204 218 222 215 209 208 207 211 214 214 214 212 216 212 211 214 216 223
210 279 190 197 192 178 169 138 152 147 235 223 207 234 254 189 202 171 207 239 256 202 206 205 200 207 217 216 214 210 210 208 204 203 208 211 217 212 214 220 221 215 213 218
193 260 265 156 170 142 119 214 144 72 152 118 230 280 307 237 197 196 193 224 185 194 198 203 203 214 211 208 209 205 204 204 206 206 206 204 202 212 217 216 217 210 226 234
219 257 264 239 163 359 141 179 78 182 223 250 296 293 245 331 198 290 139 102 171 186 191 200 202 200 209 209 205 204 201 206 199 199 196 199 203 209 206 207 217 227 227 232
178 169 252 124 187 201 150 124 48 100 153 157 211 256 224 179 160 288 201 83 179 178 187 193 204 199 209 204 202 202 199 199 193 196 194 199 196 195 194 197 206 215 225 227
201 197 243 200 226 193 188 191 150 135 224 242 165 257 222 188 164 228 263 320 168 189 195 201 198 200 197 202 201 204 197 196 190 194 191 201 202 180 180 175 193 199 204 208
174 210 236 298 342 3 197 197 185 38 86 200 152 260 345 209 158 207 226 245 208 179 183 192 193 192 195 197 201 206 197 186 189 186 184 177 172 175 177 185 188 185 175 177
155 139 189 223 215 187 227 192 201 146 129 192 211 258 84 264 242 167 209 173 177 176 187 191 192 193 197 198 197 197 197 187 187 185 178 173 173 174 178 181 185 169 159 161
121 173 159 211 201 189 191 220 273 186 205 180 228 212 198 224 222 184 123 111 162 171 175 183 188 188 195 196 196 197 195 190 188 185 179 174 173 179 178 185 183 173 208 207
354 241 148 198 208 75 306 308 294 233 111 57 137 235 186 237 263 282 17 132 166 175 180 181 187 186 195 198 195 198 193 194 188 184 179 177 180 184 187 193 193 187 197 205
271 127 85 248 322 34 332 233 245 263 204 147 172 223 178 213 206 236 101 130 151 184 186 183 184 190 195 198 196 201 195 197 200 193 190 186 187 192 196 199 199 198 212 207
270 99 109 201 47 241 241 222 222 222 262 200 150 189 208 115 161 144 133 126 132 181 201 195 188 193 197 200 200 203 199 198 204 204 202 200 199 204 206 202 202 215 221 213
153 113 72 144 177 284 317 290 230 210 287 191 188 201 193 118 123 139 161 202 183 205 205 205 199 202 200 200 201 203 203 202 202 207 207 203 206 210 208 209 213 219 212 211
89 80 108 61 85 231 234 294 291 125 254 298 211 198 146 158 132 217 174 180 221 221 234 220 208 203 201 201 202 203 205 206 204 207 209 208 208 205 207 212 213 215 213 226
2 5 159 139 197 293 249 317 16 95 232 335 341 151 144 148 194 175 176 188 192 210 231 228 208 205 203 201 202 203 207 210 211 207 208 210 211 212 217 219 220 219 222 218
135 36 246 94 111 276 240 4 60 188 182 95 105 123 116 113 180 196 203 206 205 196 215 217 205 201 202 203 202 206 208 210 212 213 208 209 208 211 213 216 220 217 226 220
285 187 214 173 214 285 316 216 151 130 121 110 117 122 119 113 108 164 183 199 209 202 207 203 204 199 203 205 208 210 211 207 207 210 214 216 214 214 213 217 219 221 225 223
325 4 40 33 336 15 30 56 140 142 128 123 121 124 124 116 99 108 123 142 169 174 187 195 203 204 204 208 213 217 212 206 204 205 211 215 216 215 216 218 223 227 227 225
251 350 317 347 344 360 21 13 31 101 109 115 112 110 110 110 99 99 118 121 142 170 174 182 194 207 213 213 213 216 217 212 211 208 210 215 219 219 219 223 228 234 236 238
205 105 53 171 351 345 332 8 24 100 108 110 113 105 101 100 99 98 102 101 97 125 184 203 203 207 205 218 224 219 222 220 214 211 213 216 218 219 222 225 229 234 238 242
Height
1508 1519 1522 1514 1514 1509 1521 1525 1531 1523 1516 1521 1526 1526 1520 1520 1524 1534 1534 1527 1529 1531 1534 1540 1542 1543 1547 1548 1549 1550 1552 1555 1559 1561 1563 1564 1567 1572 1574 1577 1579 1582 1583 1584
1511 1517 1504 1507 1507 1511 1514 1526 1526 1517 1514 1520 1524 1522 1512 1511 1513 1521 1531 1529 1523 1532 1532 1536 1540 1543 1544 1546 1547 1547 1550 1552 1557 1559 1561 1562 1566 1569 1572 1574 1576 1577 1580 1582
1513 1502 1496 1499 1504 1514 1518 1526 1522 1521 1514 1518 1524 1523 1512 1506 1510 1512 1518 1523 1525 1530 1529 1533 1536 1540 1541 1542 1544 1545 1546 1550 1554 1557 1559 1561 1564 1567 1568 1570 1571 1573 1577 1579
1503 1493 1496 1500 1502 1506 1519 1505 1506 1511 1522 1543 1524 1546 1516 1507 1508 1512 1517 1519 1522 1525 1526 1524 1534 1539 1539 1540 1543 1544 1545 1547 1551 1554 1556 1558 1561 1563 1565 1568 1569 1570 1572 1576
1497 1494 1498 1501 1501 1500 1508 1501 1505 1511 1521 1534 1534 1544 1515 1511 1515 1506 1509 1514 1520 1522 1526 1526 1530 1536 1540 1539 1542 1544 1545 1545 1548 1551 1554 1557 1559 1563 1566 1567 1566 1566 1570 1574
1488 1487 1489 1489 1489 1495 1498 1509 1520 1526 1536 1549 1534 1539 1524 1519 1507 1503 1504 1506 1514 1518 1523 1528 1529 1529 1533 1537 1540 1542 1543 1543 1546 1549 1552 1555 1558 1561 1563 1564 1565 1567 1569 1572
1488 1488 1485 1486 1494 1494 1506 1527 1553 1560 1558 1559 1537 1540 1514 1495 1493 1493 1503 1506 1505 1504 1512 1517 1522 1524 1525 1529 1536 1539 1541 1542 1543 1546 1549 1552 1555 1559 1561 1562 1564 1566 1569 1570
1511 1508 1483 1481 1486 1495 1502 1523 1547 1564 1569 1546 1534 1540 1505 1481 1489 1491 1492 1496 1499 1497 1499 1507 1517 1520 1522 1527 1533 1536 1538 1540 1542 1545 1547 1550 1553 1557 1560 1562 1564 1566 1568 1569
1507 1500 1473 1476 1477 1481 1511 1524 1504 1522 1526 1543 1538 1514 1486 1474 1484 1480 1481 1485 1487 1491 1491 1499 1511 1516 1521 1524 1530 1533 1535 1538 1540 1543 1545 1548 1550 1554 1557 1561 1564 1566 1567 1569
1483 1501 1472 1474 1477 1478 1484 1492 1526 1527 1540 1541 1539 1530 1514 1482 1483 1473 1476 1476 1478 1484 1489 1496 1506 1511 1517 1522 1527 1531 1533 1535 1538 1541 1544 1546 1549 1552 1555 1558 1562 1564 1566 1567
1470 1486 1476 1475 1481 1487 1492 1497 1509 1516 1531 1539 1548 1531 1481 1479 1477 1472 1471 1473 1477 1482 1489 1493 1500 1508 1513 1520 1525 1528 1531 1534 1536 1539 1542 1546 1547 1550 1553 1557 1560 1563 1564 1565
1460 1472 1489 1485 1466 1462 1467 1480 1491 1514 1524 1527 1517 1507 1458 1463 1470 1469 1467 1469 1474 1480 1486 1497 1499 1504 1512 1518 1523 1526 1530 1532 1535 1538 1540 1542 1545 1549 1553 1556 1558 1560 1562 1564
1455 1481 1495 1490 1479 1467 1471 1468 1470 1480 1495 1509 1519 1503 1461 1460 1466 1469 1466 1466 1469 1475 1486 1495 1504 1505 1508 1514 1520 1524 1528 1531 1534 1535 1538 1541 1544 1549 1553 1555 1557 1559 1561 1563
1438 1467 1473 1488 1483 1469 1469 1462 1466 1476 1506 1502 1495 1474 1467 1460 1459 1465 1463 1460 1461 1467 1476 1485 1496 1501 1506 1512 1516 1522 1526 1529 1531 1534 1538 1541 1545 1548 1552 1554 1556 1558 1560 1561
1439 1462 1463 1462 1459 1462 1461 1463 1461 1473 1471 1484 1470 1474 1462 1453 1454 1458 1452 1452 1457 1466 1472 1481 1489 1495 1502 1508 1514 1519 1524 1528 1531 1534 1537 1540 1545 1548 1551 1553 1555 1557 1557 1558
1441 1457 1449 1455 1450 1452 1457 1456 1457 1457 1461 1459 1463 1465 1452 1452 1453 1452 1453 1443 1459 1467 1469 1476 1485 1490 1497 1503 1510 1514 1520 1525 1530 1533 1536 1540 1544 1547 1550 1552 1555 1556 1559 1560
1449 1454 1466 1471 1454 1456 1470 1453 1451 1451 1448 1457 1468 1453 1446 1447 1450 1451 1455 1450 1455 1468 1475 1473 1479 1485 1493 1499 1505 1508 1515 1523 1525 1530 1535 1538 1542 1545 1548 1550 1552 1554 1556 1558
1450 1455 1466 1474 1465 1486 1454 1439 1437 1444 1440 1442 1442 1441 1435 1445 1444 1450 1450 1451 1457 1465 1473 1481 1479 1484 1490 1496 1502 1506 1512 1518 1522 1526 1532 1536 1539 1542 1545 1548 1550 1553 1554 1555
1443 1455 1469 1478 1486 1467 1448 1437 1435 1440 1442 1436 1435 1435 1436 1443 1443 1448 1447 1450 1455 1463 1470 1476 1478 1480 1487 1493 1499 1503 1508 1514 1519 1523 1528 1533 1537 1540 1542 1545 1548 1551 1552 1553
1445 1448 1462 1476 1476 1484 1452 1431 1425 1428 1457 1432 1431 1430 1435 1439 1453 1447 1446 1446 1450 1460 1466 1470 1477 1479 1483 1490 1494 1500 1505 1509 1514 1519 1524 1529 1533 1537 1540 1543 1545 1547 1550 1552
1462 1463 1467 1478 1476 1463 1436 1428 1423 1454 1458 1428 1424 1434 1434 1437 1438 1440 1441 1442 1447 1455 1462 1466 1473 1476 1482 1487 1492 1497 1501 1504 1509 1517 1521 1526 1529 1533 1536 1540 1542 1545 1547 1549
1467 1470 1473 1473 1473 1474 1433 1430 1439 1440 1435 1426 1431 1438 1438 1439 1436 1435 1435 1438 1447 1452 1459 1465 1471 1474 1480 1485 1489 1493 1496 1501 1507 1512 1517 1521 1525 1529 1534 1537 1539 1541 1543 1546
1468 1459 1463 1461 1461 1440 1432 1430 1431 1432 1432 1434 1432 1441 1441 1443 1444 1435 1435 1441 1447 1451 1455 1461 1466 1471 1476 1481 1484 1488 1492 1497 1503 1508 1512 1516 1520 1525 1529 1532 1534 1536 1539 1541
1456 1451 1455 1450 1450 1445 1438 1435 1433 1431 1432 1436 1437 1438 1441 1441 1441 1439 1441 1443 1449 1453 1456 1460 1460 1466 1470 1474 1478 1482 1487 1492 1497 1502 1507 1512 1515 1520 1524 1527 1530 1532 1533 1535
1465 1458 1460 1459 1450 1442 1443 1446 1445 1441 1437 1436 1439 1442 1443 1442 1441 1441 1443 1447 1451 1453 1454 1456 1459 1463 1466 1471 1474 1478 1484 1488 1492 1496 1501 1506 1510 1514 1518 1521 1523 1525 1528 1531
1460 1463 1468 1469 1463 1460 1457 1454 1451 1449 1446 1445 1443 1443 1445 1446 1446 1446 1445 1447 1451 1453 1454 1457 1459 1460 1463 1467 1471 1474 1480 1486 1488 1492 1496 1499 1504 1509 1512 1515 1518 1520 1523 1527